Springfield, IL

7:53 PM CDT on April 26, 2017 (GMT -0500)
Capital

Weather History for KSPI - July, 2013

Change the Weather History Date:

Wednesday, July 10, 2013

  Actual Average Record
Temperature  
Mean Temperature 78 °F 76 °F  
Max Temperature 88 °F 87 °F 105 °F (1966)
Min Temperature 67 °F 66 °F 49 °F (1996)
Degree Days  
Heating Degree Days 0 0  
Month to date heating degree days 0 0  
Since 1 June heating degree days 12 15  
Since 1 July heating degree days 0 0  
Cooling Degree Days 13 11  
Month to date cooling degree days 106 110  
Year to date cooling degree days 490 454  
Since 1 June cooling degree days 364 350  
Growing Degree Days 29 (Base 50)    
Moisture  
Dew Point 70 °F    
Average Humidity 72    
Maximum Humidity 93    
Minimum Humidity 51    
Precipitation  
Precipitation 0.95 in 0.13 in 2.62 in (1971)
Month to date precipitation 0.97 1.30  
Year to date precipitation 28.04 19.77  
Snow  
Snow 0.00 in 0.00 in 0.00 in ()
Month to date snowfall 0.0 0.0  
Since 1 June snowfall 0.0 0.0  
Since 1 July snowfall 0.0 0.0  
Snow Depth 0.00 in    
Sea Level Pressure  
Sea Level Pressure 29.93 in    
Wind  
Wind Speed 9 mph (West)    
Max Wind Speed 30 mph    
Max Gust Speed 39 mph    
Visibility 8 miles    
Events Fog , Rain , Thunderstorm    
T = Trace of Precipitation, MM = Missing Value Source: NWS Daily Summary

Daily Weather History Graph

Daily Weather History Graph

Search for Another Location

Airport or City:

Trip Planner

Search our weather history database for the weather conditions in past years. The results will help you decide how hot, cold, wet, or windy it might be!

Date:

Astronomy

Jul. 10, 2013 Rise Set
Actual Time 5:39 AM CDT 8:28 PM CDT
Civil Twilight 5:07 AM CDT 9:00 PM CDT
Nautical Twilight 4:27 AM CDT 9:40 PM CDT
Astronomical Twilight 3:40 AM CDT 10:26 PM CDT
Moon 8:00 AM CDT (7/10) 9:38 PM CDT (7/10)
Length of Visible Light 15h 52m
Length of Day
14h 48m
Waxing Crescent, 5% of the Moon is Illuminated
Jul 10
Waxing Crescent
Jul 15
First Quarter
Jul 22
Full
Jul 29
Last Quarter
Aug 6
New

Hourly Weather History & Observations

Time (CDT) Temp. Heat Index Dew Point Humidity Pressure Visibility Wind Dir Wind Speed Gust Speed Precip Events Conditions
12:52 AM 82.0 °F 87.4 °F 73.0 °F 74% 29.91 in 10.0 mi SSW 10.4 mph - N/A   Scattered Clouds
1:52 AM 81.0 °F 85.8 °F 73.0 °F 77% 29.90 in 10.0 mi SSW 9.2 mph - N/A   Scattered Clouds
2:52 AM 80.1 °F 84.2 °F 73.0 °F 79% 29.89 in 10.0 mi SSW 5.8 mph - N/A   Partly Cloudy
3:52 AM 80.1 °F 83.8 °F 72.0 °F 76% 29.88 in 10.0 mi SSW 4.6 mph - N/A   Clear
4:52 AM 80.1 °F 84.2 °F 73.0 °F 79% 29.87 in 10.0 mi SSW 6.9 mph - N/A   Mostly Cloudy
5:52 AM 80.1 °F 84.2 °F 73.0 °F 79% 29.85 in 10.0 mi SSW 6.9 mph - N/A   Partly Cloudy
6:52 AM 81.0 °F 85.2 °F 72.0 °F 74% 29.87 in 10.0 mi SW 6.9 mph - N/A   Clear
7:52 AM 82.0 °F 87.4 °F 73.0 °F 74% 29.88 in 10.0 mi SW 9.2 mph - 0.00 in Rain Light Rain
8:41 AM 78.8 °F - 71.6 °F 78% 29.89 in 5.0 mi SSW 12.7 mph 20.7 mph N/A Rain , Thunderstorm Thunderstorms and Rain
8:52 AM 75.9 °F - 72.0 °F 87% 29.91 in 4.0 mi WSW 11.5 mph 20.7 mph 0.09 in Rain , Thunderstorm Light Thunderstorms and Rain
9:14 AM 73.4 °F - 71.6 °F 94% 29.96 in 2.0 mi WSW 11.5 mph 27.6 mph 0.03 in Rain , Thunderstorm Thunderstorms and Rain
9:19 AM 73.4 °F - 71.6 °F 94% 29.94 in 1.2 mi SW 25.3 mph 39.1 mph 0.07 in Rain , Thunderstorm Thunderstorms and Rain
9:24 AM 71.6 °F - 69.8 °F 94% 29.95 in 0.5 mi WSW 25.3 mph 39.1 mph 0.11 in Fog , Rain , Thunderstorm Thunderstorms and Rain
9:27 AM 71.6 °F - 69.8 °F 94% 29.96 in 0.2 mi WSW 20.7 mph 39.1 mph 0.26 in Fog , Rain , Thunderstorm Thunderstorms and Rain
9:36 AM 71.6 °F - 69.8 °F 94% 29.97 in 0.5 mi SW 17.3 mph 32.2 mph 0.79 in Fog , Rain , Thunderstorm Heavy Thunderstorms and Rain
9:40 AM 71.6 °F - 69.8 °F 94% 29.97 in 1.8 mi SW 17.3 mph 31.1 mph 0.82 in Rain , Thunderstorm Heavy Thunderstorms and Rain
9:43 AM 71.6 °F - 69.8 °F 94% 29.97 in 3.0 mi SW 18.4 mph 28.8 mph 0.83 in Rain , Thunderstorm Light Thunderstorms and Rain
9:52 AM 73.0 °F - 71.1 °F 93% 29.97 in 9.0 mi SW 15.0 mph 24.2 mph 0.84 in Rain , Thunderstorm Light Thunderstorms and Rain
10:46 AM 73.4 °F - 71.6 °F 94% 30.01 in 10.0 mi West 4.6 mph - 0.02 in Rain , Thunderstorm Light Thunderstorms and Rain
10:52 AM 73.9 °F - 71.1 °F 91% 30.00 in 10.0 mi West 3.5 mph - 0.02 in Rain , Thunderstorm Light Thunderstorms and Rain
11:27 AM 75.2 °F - 71.6 °F 89% 29.99 in 10.0 mi West 4.6 mph - 0.00 in   Mostly Cloudy
11:52 AM 79.0 °F - 73.0 °F 82% 29.96 in 10.0 mi West 15.0 mph - 0.00 in   Clear
12:52 PM 81.0 °F 86.2 °F 73.9 °F 79% 29.95 in 10.0 mi NW 10.4 mph - N/A   Mostly Cloudy
1:52 PM 84.9 °F 92.1 °F 73.9 °F 69% 29.93 in 10.0 mi NW 11.5 mph - N/A   Partly Cloudy
2:52 PM 87.1 °F 92.0 °F 70.0 °F 57% 29.91 in 10.0 mi NNW 11.5 mph - N/A   Clear
3:52 PM 87.1 °F 93.6 °F 72.0 °F 61% 29.90 in 10.0 mi WNW 11.5 mph - N/A   Partly Cloudy
4:52 PM 87.1 °F 90.6 °F 68.0 °F 53% 29.90 in 10.0 mi NW 11.5 mph - N/A   Clear
5:52 PM 86.0 °F 88.2 °F 66.0 °F 51% 29.89 in 10.0 mi NW 13.8 mph - N/A   Clear
6:52 PM 84.0 °F 86.5 °F 66.9 °F 56% 29.91 in 10.0 mi NNW 11.5 mph - N/A   Scattered Clouds
7:52 PM 80.1 °F 82.3 °F 66.9 °F 64% 29.93 in 10.0 mi North 5.8 mph - N/A   Clear
8:52 PM 75.0 °F - 66.0 °F 73% 29.95 in 10.0 mi NNW 4.6 mph - N/A   Scattered Clouds
9:52 PM 73.0 °F - 66.0 °F 79% 29.98 in 10.0 mi North 4.6 mph - N/A   Partly Cloudy
10:52 PM 71.1 °F - 66.0 °F 84% 29.99 in 10.0 mi North 3.5 mph - N/A   Scattered Clouds
11:52 PM 69.1 °F - 64.9 °F 87% 30.01 in 10.0 mi North 5.8 mph - N/A   Partly Cloudy